Weather History for KUIN - November, 2012

Change the Weather History Date:

Tuesday, November 6, 2012

  Actual Average Record
Temperature  
Mean Temperature 43 °F 47 °F  
Max Temperature 46 °F 57 °F 79 °F (1916)
Min Temperature 40 °F 38 °F 16 °F (1991)
Degree Days  
Heating Degree Days 22 18  
Month to date heating degree days 136 101  
Since 1 July heating degree days 612 525  
Cooling Degree Days 0 0  
Month to date cooling degree days 0 0  
Year to date cooling degree days 1573 1093  
Moisture  
Dew Point 39 °F    
Average Humidity 86    
Maximum Humidity 96    
Minimum Humidity 76    
Precipitation  
Precipitation 0.07 in 0.11 in 2.15 in (1912)
Month to date precipitation 0.37 0.61  
Year to date precipitation 23.59 32.67  
Sea Level Pressure  
Sea Level Pressure 29.97 in    
Wind  
Wind Speed 7 mph (SW)    
Max Wind Speed 18 mph    
Max Gust Speed 26 mph    
Visibility 5 miles    
Events Rain    
T = Trace of Precipitation, MM = Missing Value Source: NWS Daily Summary

Daily Weather History Graph

Daily Weather History Graph

Search for Another Location

Airport or City:

Trip Planner

Search our weather history database for the weather conditions in past years. The results will help you decide how hot, cold, wet, or windy it might be!

Date:

Astronomy

Nov. 06, 2012 Rise Set
Actual Time 6:40 AM CST 4:56 PM CST
Civil Twilight 6:11 AM CST 5:24 PM CST
Nautical Twilight 5:39 AM CST 5:56 PM CST
Astronomical Twilight 5:07 AM CST 6:28 PM CST
Moon 11:35 PM CST (11/6) 12:32 PM CST (11/6)
Length of Visible Light 11h 13m
Length of Day
10h 16m
Waning Gibbous, 53% of the Moon is Illuminated
Nov 6
Waning Gibbous
Nov 6
Last Quarter
Nov 13
New
Nov 20
First Quarter
Nov 28
Full

Hourly Weather History & Observations

Time (CST) Temp. Windchill Dew Point Humidity Pressure Visibility Wind Dir Wind Speed Gust Speed Precip Events Conditions
12:18 AM 39.2 °F - 37.4 °F 93% 30.09 in 6.0 mi Calm Calm - N/A   Overcast
12:54 AM 39.9 °F - 37.0 °F 89% 30.10 in 5.0 mi Calm Calm - N/A   Overcast
1:54 AM 39.9 °F - 37.0 °F 89% 30.08 in 4.0 mi Calm Calm - N/A   Overcast
2:54 AM 39.9 °F - 37.0 °F 89% 30.07 in 4.0 mi Calm Calm - N/A   Overcast
3:54 AM 39.9 °F - 37.0 °F 89% 30.07 in 4.0 mi Calm Calm - N/A   Overcast
4:33 AM 39.2 °F 35.0 °F 37.4 °F 93% 30.04 in 4.0 mi SSE 5.8 mph - N/A   Overcast
4:54 AM 39.9 °F 37.8 °F 37.0 °F 89% 30.04 in 4.0 mi SSW 3.5 mph - N/A   Overcast
5:11 AM 39.2 °F 35.9 °F 37.4 °F 93% 30.01 in 4.0 mi SSE 4.6 mph - N/A   Overcast
5:22 AM 39.2 °F 37.0 °F 37.4 °F 93% 30.02 in 4.0 mi South 3.5 mph - N/A   Overcast
5:54 AM 39.9 °F 35.8 °F 37.0 °F 89% 30.02 in 4.0 mi South 5.8 mph - N/A   Overcast
6:28 AM 39.2 °F 34.2 °F 37.4 °F 93% 30.02 in 3.0 mi SSW 6.9 mph - N/A   Overcast
6:54 AM 39.9 °F 35.1 °F 37.9 °F 93% 30.01 in 3.0 mi South 6.9 mph - N/A   Overcast
7:06 AM 39.2 °F 34.2 °F 37.4 °F 93% 30.00 in 2.5 mi South 6.9 mph - N/A   Overcast
7:54 AM 41.0 °F 37.1 °F 37.9 °F 89% 30.02 in 2.0 mi SSW 5.8 mph - N/A   Overcast
8:54 AM 42.1 °F 36.6 °F 39.0 °F 89% 30.01 in 2.5 mi SSW 9.2 mph - 0.00 in Rain Light Rain
9:16 AM 41.0 °F 36.4 °F 39.2 °F 93% 30.00 in 1.5 mi South 6.9 mph - 0.02 in Rain Rain
9:54 AM 42.1 °F 37.1 °F 39.9 °F 92% 30.00 in 1.8 mi SSW 8.1 mph - 0.04 in   Overcast
10:07 AM 42.8 °F 36.6 °F 39.2 °F 87% 29.98 in 2.0 mi SSW 11.5 mph - N/A   Overcast
10:32 AM 42.8 °F 36.2 °F 41.0 °F 93% 29.97 in 3.0 mi SSW 12.7 mph - 0.00 in Rain Light Rain
10:54 AM 43.0 °F 36.8 °F 41.0 °F 93% 29.98 in 4.0 mi SW 11.5 mph - 0.00 in   Overcast
11:51 AM 44.6 °F 38.8 °F 41.0 °F 87% 29.93 in 5.0 mi SW 11.5 mph - 0.00 in   Overcast
11:54 AM 44.1 °F 37.7 °F 41.0 °F 89% 29.94 in 5.0 mi WSW 12.7 mph - 0.00 in   Overcast
12:04 PM 44.6 °F 38.4 °F 41.0 °F 87% 29.92 in 2.5 mi WSW 12.7 mph - N/A   Overcast
12:17 PM 42.8 °F 35.8 °F 41.0 °F 93% 29.92 in 1.8 mi WSW 13.8 mph - 0.00 in Rain Light Rain
12:21 PM 42.8 °F 35.8 °F 41.0 °F 93% 29.92 in 3.0 mi WSW 13.8 mph - 0.00 in Rain Light Rain
12:25 PM 42.8 °F 35.8 °F 39.2 °F 87% 29.91 in 6.0 mi WSW 13.8 mph 20.7 mph 0.00 in Rain Light Rain
12:54 PM 43.0 °F 37.7 °F 39.9 °F 89% 29.92 in 6.0 mi WSW 9.2 mph 19.6 mph 0.00 in   Overcast
1:04 PM 42.8 °F 37.5 °F 39.2 °F 87% 29.91 in 3.0 mi WSW 9.2 mph - N/A   Overcast
1:12 PM 42.8 °F 37.5 °F 41.0 °F 93% 29.91 in 2.5 mi WSW 9.2 mph - N/A   Overcast
1:54 PM 43.0 °F 38.8 °F 41.0 °F 93% 29.91 in 3.0 mi WSW 6.9 mph - 0.01 in   Overcast
2:07 PM 42.8 °F 38.0 °F 41.0 °F 93% 29.89 in 2.5 mi WSW 8.1 mph - N/A   Overcast
2:18 PM 42.8 °F 38.0 °F 41.0 °F 93% 29.89 in 3.0 mi WSW 8.1 mph - N/A   Overcast
2:54 PM 44.1 °F 40.1 °F 41.0 °F 89% 29.91 in 4.0 mi WSW 6.9 mph - N/A   Overcast
3:25 PM 44.6 °F 41.4 °F 42.8 °F 93% 29.90 in 5.0 mi West 5.8 mph - N/A   Overcast
3:54 PM 46.0 °F 40.2 °F 39.9 °F 79% 29.91 in 10.0 mi NW 12.7 mph - N/A   Scattered Clouds
4:54 PM 45.0 °F 41.8 °F 39.9 °F 82% 29.93 in 10.0 mi WNW 5.8 mph - N/A   Overcast
5:54 PM 45.0 °F 42.6 °F 39.9 °F 82% 29.93 in 10.0 mi WSW 4.6 mph - N/A   Overcast
6:54 PM 46.0 °F 44.8 °F 39.9 °F 79% 29.94 in 9.0 mi West 3.5 mph - 0.00 in   Overcast
7:54 PM 45.0 °F 43.5 °F 39.9 °F 82% 29.95 in 10.0 mi West 3.5 mph - N/A   Overcast
8:54 PM 45.0 °F 38.2 °F 39.9 °F 82% 29.95 in 9.0 mi NW 15.0 mph - 0.01 in Rain Light Rain
9:54 PM 44.1 °F 40.1 °F 39.9 °F 85% 29.95 in 10.0 mi NW 6.9 mph - 0.01 in   Overcast
10:54 PM 44.1 °F 38.1 °F 39.0 °F 82% 29.94 in 10.0 mi NW 11.5 mph - N/A   Overcast
11:54 PM 43.0 °F 37.2 °F 37.9 °F 82% 29.94 in 10.0 mi WNW 10.4 mph - N/A   Overcast